[[{"header":{"parameterUnit":"m.s-1","parameterCategory":1,"la1":30.2991,"la2":30.254,"lo1":-89.0895,"lo2":-89.0444,"dy":0.0017,"dx":0.0017,"nx":28,"ny":28,"refTime":"2025-08-23T03:00:00:Z","depth":0,"parameterNumber":2,"parameterNumberName":"U-component_of_WINDS"},"data":[0,0,0,0,0,0,0,0,0,0,0,0,0,0,0,0,0,0,0,0,0,0,0,0,0,0,0,0,0,0,0,0,0,0,0,0,0,0,0,0,0,0,0,0,0,0,0,0,0,0,0,0,0,0,0,0,0,0,1.2774,1.2775,0,1.2841,1.2842,1.2843,1.2815,1.2813,1.2812,1.281,1.2884,1.2887,1.289,0,0,0,0,0,0,0,0,0,0,0,0,0,1.2627,1.2629,1.2774,1.2775,1.2776,1.2841,1.2842,1.2843,1.2815,1.2813,1.2811,1.2809,1.2882,1.2887,1.2891,0,0,0,0,0,0,0,0,0,0,0,0,0,1.2692,1.263,1.2774,1.277,1.277,1.2841,1.2842,1.2843,1.2816,1.2813,1.2811,1.2808,1.2881,1.2886,1.2891,1.2972,0,0,1.2907,1.2909,0,0,0,0,0,0,0,0,1.2688,1.2698,1.2769,1.277,1.277,1.2817,1.2817,1.2887,1.2816,1.2798,1.281,1.2807,1.2864,1.287,1.2888,1.2976,1.2979,1.2908,1.2911,1.2913,1.2915,0,0,0,0,0,0,0,1.2684,1.2694,1.2801,1.2771,1.2771,1.2766,1.2773,1.283,1.2844,1.28,1.2798,1.2806,1.2864,1.2883,1.289,1.298,1.2908,1.2912,1.2915,1.2917,1.3139,1.3142,0,0,0,0,0,0,1.2679,1.2691,1.2799,1.2803,1.2722,1.2771,1.2778,1.2805,1.2843,1.2847,1.2808,1.2804,1.2876,1.2884,1.2892,1.2991,1.2913,1.2918,1.2921,1.3136,1.314,1.3143,0,0,0,0,0,0,1.2676,1.2688,1.2796,1.2746,1.276,1.2776,1.2806,1.2807,1.2827,1.2849,1.2852,1.2825,1.2874,1.2885,1.2953,1.2993,1.292,1.2925,1.3133,1.3137,1.3141,1.3188,0,0,0,0,0,0,1.2671,1.2687,1.2717,1.2747,1.2762,1.2854,1.2808,1.281,1.2836,1.2832,1.2866,1.287,1.2873,1.2945,1.2958,1.2999,1.2929,1.3129,1.3135,1.314,1.3183,1.3194,1.3202,0,0,0,0,0,1.2666,1.2728,1.2719,1.2732,1.2799,1.2856,1.2865,1.2866,1.2839,1.287,1.2884,1.2869,1.2986,1.2952,1.2966,1.301,1.3127,1.3133,1.3139,1.3179,1.3191,1.3202,0,0,0,0,0,0,1.2704,1.2732,1.2722,1.2795,1.2823,1.2851,1.289,1.2879,1.2916,1.2911,1.2912,1.292,1.2991,1.3007,1.2968,1.3091,1.3053,1.3062,1.3078,1.309,1.31,1.3095,1.2933,0,0,0,0,0,1.272,1.2762,1.2785,1.2848,1.2862,1.2874,1.2899,1.2897,1.2927,1.2939,1.2958,1.2989,1.3033,1.3062,1.3104,1.3185,1.3193,1.3222,1.3231,1.3239,1.3248,1.3294,1.3308,1.3163,1.3163,1.3163,0,0,1.2756,1.2776,1.2803,1.2856,1.2878,1.2923,1.2884,1.2933,1.2968,1.2947,1.3012,1.3027,1.3062,1.3137,1.3171,1.3153,1.329,1.3247,1.3253,1.3258,1.3302,1.3316,1.3328,1.3167,1.3166,1.3166,0,0,1.2843,1.2862,1.2917,1.2939,1.2972,1.298,1.2993,1.3023,1.3032,1.3097,1.3083,1.3124,1.3199,1.3225,1.3248,1.3347,1.3335,1.336,1.3411,1.3456,1.3467,1.3478,1.3515,1.3528,1.3368,1.3369,1.3369,0,1.2883,1.295,1.2947,1.2998,1.3023,1.3004,1.3062,1.3084,1.3129,1.3148,1.3126,1.3221,1.3243,1.3325,1.3349,1.3367,1.3384,1.3357,1.3466,1.3476,1.3485,1.3521,1.3534,1.3372,1.3371,1.3371,1.3371,0,1.2998,1.3045,1.3085,1.3129,1.3158,1.3212,1.3219,1.325,1.3245,1.3256,1.3323,1.3349,1.3396,1.3415,1.3412,1.3497,1.3485,1.3464,1.3426,1.3502,1.3536,1.3549,1.3376,1.3375,1.3374,1.3373,0,0,1.3112,1.3153,1.3169,1.3189,1.3224,1.3261,1.3315,1.3359,1.3386,1.3418,1.3465,1.3529,1.3511,1.3537,1.3537,1.3576,1.3655,1.3551,1.3552,1.3571,1.3753,1.3769,1.3785,1.3646,1.3649,1.3651,1.3751,0,1.3204,1.3296,1.3296,1.3383,1.3427,1.3411,1.3458,1.3486,1.3497,1.3537,1.355,1.3596,1.3567,1.3583,1.3621,1.3637,1.3692,1.363,1.3692,1.3694,1.3685,1.3802,1.382,1.3912,1.3763,1.3766,1.3767,0,1.3323,1.3359,1.3449,1.3479,1.3498,1.354,1.3582,1.362,1.3652,1.3658,1.3687,1.3681,1.3738,1.3697,1.3776,1.3734,1.376,1.3771,1.3775,1.3782,1.3736,1.3815,1.3942,1.3957,1.3787,1.3786,1.3784,0,1.34,1.347,1.3533,1.3551,1.3587,1.3618,1.3634,1.3664,1.3691,1.3728,1.3747,1.379,1.3815,1.385,1.3856,1.3825,1.3937,1.3896,1.3945,1.3945,1.3971,1.3969,1.4106,1.3984,1.3984,1.3984,1.3983,0,1.3503,1.356,1.3568,1.3608,1.3672,1.3671,1.3735,1.375,1.3776,1.3819,1.3808,1.3849,1.3854,1.3898,1.3903,1.397,1.398,1.3988,1.3989,1.399,1.3989,1.4008,1.4002,1.3987,1.3987,1.3986,1.3985,0,1.36,1.3608,1.3676,1.3705,1.3713,1.3759,1.3785,1.3823,1.3833,1.3888,1.3901,1.3918,1.3968,1.3977,1.4037,1.4041,1.4121,1.4114,1.411,1.411,1.4159,1.4155,1.4314,1.4336,1.4198,1.4199,1.42,0,1.3666,1.371,1.3743,1.377,1.3788,1.3833,1.3861,1.3863,1.3893,1.3933,1.3968,1.4016,1.4056,1.4137,1.4156,1.4202,1.4198,1.425,1.4205,1.4205,1.4201,1.4199,1.4205,1.426,1.4261,1.4262,1.4263,0,1.3784,1.3786,1.3826,1.3868,1.3901,1.3935,1.3966,1.399,1.3997,1.4031,1.4082,1.4112,1.4173,1.4223,1.4269,1.4288,1.4278,1.4277,1.4292,1.4294,1.429,1.4295,1.4136,1.4274,1.4273,1.4272,1.4272,1.4271,1.3869,1.3908,1.3937,1.3983,1.4006,1.4036,1.4075,1.4089,1.4131,1.418,1.4179,1.4235,1.4268,1.4328,1.435,1.4396,1.4379,1.4399,1.4405,1.441,1.4416,1.4281,1.4404,1.4404,1.4403,1.4403,1.4403,0,1.3989,1.4007,1.4048,1.4093,1.4129,1.4114,1.4149,1.4181,1.423,1.426,1.4299,1.4358,1.4407,1.4428,1.4476,1.4509,1.4506,1.4522,1.452,1.4525,1.4427,1.441,1.4523,1.4523,1.4523,1.4523,1.4523,1.4523,1.4055,1.4119,1.4125,1.4202,1.422,1.4274,1.4295,1.4324,1.4348,1.4414,1.4454,1.4467,1.4495,1.4545,1.4589,1.4595,1.4614,1.4633,1.4636,1.4544,1.4532,1.452,1.4505,1.4636,1.4636,1.4731,1.4732,1.4733]},{"header":{"parameterUnit":"m.s-1","parameterCategory":1,"la1":30.2991,"la2":30.254,"lo1":-89.0895,"lo2":-89.0444,"dy":0.0017,"dx":0.0017,"nx":28,"ny":28,"refTime":"2025-08-23T03:00:00:Z","depth":0,"parameterNumber":3,"parameterNumberName":"V-component_of_WINDS"},"data":[0,0,0,0,0,0,0,0,0,0,0,0,0,0,0,0,0,0,0,0,0,0,0,0,0,0,0,0,0,0,0,0,0,0,0,0,0,0,0,0,0,0,0,0,0,0,0,0,0,0,0,0,0,0,0,0,0,0,-0.2157,-0.2156,0,-0.2085,-0.2084,-0.2084,-0.2075,-0.2076,-0.2077,-0.2077,-0.2005,-0.2003,-0.2,0,0,0,0,0,0,0,0,0,0,0,0,0,-0.2291,-0.2289,-0.2157,-0.2156,-0.2155,-0.2085,-0.2084,-0.2083,-0.2075,-0.2076,-0.2077,-0.2078,-0.2006,-0.2003,-0.2,0,0,0,0,0,0,0,0,0,0,0,0,0,-0.2227,-0.2288,-0.2157,-0.2143,-0.2141,-0.2086,-0.2084,-0.2083,-0.2075,-0.2076,-0.2077,-0.2078,-0.2007,-0.2003,-0.1999,-0.1954,0,0,-0.1988,-0.1986,0,0,0,0,0,0,0,0,-0.2231,-0.2223,-0.2146,-0.2144,-0.2141,-0.209,-0.2105,-0.204,-0.2075,-0.21,-0.2077,-0.2078,-0.2033,-0.2027,-0.2011,-0.1951,-0.1948,-0.1987,-0.1985,-0.1983,-0.1982,0,0,0,0,0,0,0,-0.2235,-0.2226,-0.2129,-0.2145,-0.2142,-0.2141,-0.2133,-0.2093,-0.2061,-0.2098,-0.2097,-0.2089,-0.2032,-0.2015,-0.2009,-0.1947,-0.1987,-0.1984,-0.1982,-0.198,-0.1851,-0.185,0,0,0,0,0,0,-0.2242,-0.2229,-0.2131,-0.2127,-0.219,-0.2138,-0.2129,-0.2106,-0.2062,-0.2056,-0.2088,-0.2088,-0.2021,-0.2014,-0.2007,-0.1954,-0.1983,-0.198,-0.1978,-0.1852,-0.1851,-0.1849,0,0,0,0,0,0,-0.2245,-0.2233,-0.2134,-0.2178,-0.2165,-0.2134,-0.2108,-0.2104,-0.2087,-0.2054,-0.2049,-0.2076,-0.2021,-0.2012,-0.1968,-0.1951,-0.1978,-0.1974,-0.1853,-0.1852,-0.185,-0.1846,0,0,0,0,0,0,-0.2249,-0.2235,-0.2216,-0.2177,-0.2163,-0.2095,-0.2107,-0.2101,-0.208,-0.208,-0.2042,-0.2036,-0.2022,-0.1974,-0.1965,-0.1946,-0.1971,-0.1855,-0.1853,-0.1851,-0.1848,-0.1844,-0.1842,0,0,0,0,0,-0.2254,-0.2217,-0.2215,-0.2203,-0.2139,-0.2094,-0.2086,-0.2069,-0.2078,-0.206,-0.204,-0.2038,-0.1955,-0.197,-0.1959,-0.1939,-0.1856,-0.1853,-0.1851,-0.1849,-0.1845,-0.1842,0,0,0,0,0,0,-0.2254,-0.2212,-0.2209,-0.2158,-0.213,-0.2093,-0.2069,-0.2065,-0.2034,-0.2036,-0.2017,-0.2009,-0.1966,-0.1948,-0.1966,-0.1895,-0.1906,-0.1901,-0.1909,-0.1905,-0.1902,-0.1907,-0.1968,0,0,0,0,0,-0.2248,-0.2215,-0.218,-0.2139,-0.2125,-0.21,-0.208,-0.207,-0.204,-0.2028,-0.2004,-0.1976,-0.1944,-0.1923,-0.1892,-0.1845,-0.1838,-0.1827,-0.1824,-0.1821,-0.1818,-0.1795,-0.179,-0.1841,-0.1841,-0.1841,0,0,-0.2236,-0.2209,-0.2188,-0.2138,-0.2115,-0.2083,-0.209,-0.2054,-0.2031,-0.2023,-0.198,-0.1963,-0.193,-0.1886,-0.1865,-0.1869,-0.1802,-0.1818,-0.1817,-0.1814,-0.1792,-0.1787,-0.1783,-0.184,-0.184,-0.184,0,0,-0.2197,-0.2172,-0.2136,-0.2114,-0.2079,-0.2063,-0.2055,-0.2019,-0.2007,-0.1964,-0.1959,-0.1931,-0.1875,-0.1854,-0.1835,-0.1792,-0.179,-0.1783,-0.1768,-0.1746,-0.1742,-0.1738,-0.1725,-0.172,-0.1779,-0.1779,-0.1779,0,-0.2186,-0.2136,-0.2119,-0.2084,-0.2064,-0.2056,-0.2022,-0.2001,-0.1958,-0.1944,-0.195,-0.1883,-0.186,-0.1812,-0.1802,-0.1786,-0.1778,-0.1787,-0.1743,-0.174,-0.1736,-0.1724,-0.1718,-0.1779,-0.1779,-0.1779,-0.1779,0,-0.2125,-0.2091,-0.2067,-0.2026,-0.2003,-0.1969,-0.1949,-0.1927,-0.192,-0.1905,-0.1863,-0.1836,-0.1801,-0.1789,-0.1781,-0.174,-0.1745,-0.1747,-0.1758,-0.1731,-0.1719,-0.1714,-0.1778,-0.1778,-0.1778,-0.1778,0,0,-0.2082,-0.2036,-0.2027,-0.201,-0.1973,-0.1947,-0.1914,-0.1879,-0.1863,-0.1834,-0.1807,-0.1762,-0.1765,-0.1745,-0.1735,-0.1715,-0.1687,-0.1721,-0.172,-0.1717,-0.1644,-0.1643,-0.1637,-0.1685,-0.1684,-0.1683,-0.1647,0,-0.2041,-0.1981,-0.1966,-0.1915,-0.1885,-0.1879,-0.1851,-0.1826,-0.1811,-0.1785,-0.1769,-0.1738,-0.1743,-0.1731,-0.1712,-0.1694,-0.1672,-0.1696,-0.1661,-0.166,-0.1671,-0.1631,-0.1629,-0.1596,-0.1642,-0.1641,-0.1641,0,-0.1983,-0.1955,-0.1901,-0.1871,-0.1858,-0.1832,-0.1802,-0.1776,-0.1749,-0.174,-0.1718,-0.1711,-0.1679,-0.1691,-0.1648,-0.1665,-0.165,-0.164,-0.1638,-0.1635,-0.1649,-0.1628,-0.1585,-0.1581,-0.1633,-0.1633,-0.1634,0,-0.1961,-0.1908,-0.1871,-0.1856,-0.1819,-0.1802,-0.1786,-0.176,-0.1742,-0.1715,-0.1703,-0.1673,-0.1657,-0.1635,-0.1621,-0.1631,-0.158,-0.159,-0.1573,-0.1573,-0.1562,-0.1563,-0.1518,-0.1551,-0.1551,-0.1551,-0.1551,0,-0.1916,-0.1884,-0.186,-0.1837,-0.1802,-0.1787,-0.1753,-0.1737,-0.1715,-0.169,-0.1683,-0.166,-0.1642,-0.1618,-0.1607,-0.1574,-0.1566,-0.1559,-0.1557,-0.156,-0.1562,-0.1551,-0.1553,-0.155,-0.155,-0.155,-0.1551,0,-0.1884,-0.1867,-0.1825,-0.1795,-0.1787,-0.1763,-0.1737,-0.1716,-0.1702,-0.1671,-0.1663,-0.1641,-0.1612,-0.1596,-0.1559,-0.1552,-0.1516,-0.1514,-0.1525,-0.1524,-0.1508,-0.1511,-0.1455,-0.1448,-0.1485,-0.1485,-0.1484,0,-0.1857,-0.1833,-0.1801,-0.1784,-0.1768,-0.174,-0.1721,-0.1707,-0.1688,-0.1657,-0.164,-0.1611,-0.1586,-0.154,-0.1522,-0.1495,-0.1493,-0.1476,-0.1489,-0.1494,-0.1495,-0.1497,-0.1496,-0.1474,-0.1473,-0.1473,-0.1473,0,-0.1812,-0.1806,-0.1779,-0.175,-0.1728,-0.1705,-0.1682,-0.1668,-0.165,-0.163,-0.16,-0.1582,-0.1545,-0.1517,-0.1489,-0.1474,-0.1471,-0.1469,-0.1464,-0.1468,-0.1476,-0.1473,-0.152,-0.147,-0.1471,-0.1471,-0.1471,-0.1471,-0.1783,-0.1763,-0.1738,-0.1709,-0.169,-0.167,-0.1649,-0.1633,-0.1608,-0.1577,-0.157,-0.154,-0.1517,-0.1479,-0.1464,-0.1441,-0.1444,-0.1436,-0.1434,-0.1433,-0.1433,-0.1479,-0.1435,-0.1436,-0.1436,-0.1436,-0.1436,0,-0.174,-0.1724,-0.1698,-0.1667,-0.1645,-0.1644,-0.1619,-0.1602,-0.1575,-0.1553,-0.153,-0.1498,-0.1471,-0.1452,-0.1425,-0.1411,-0.1409,-0.1405,-0.1406,-0.1403,-0.1431,-0.1439,-0.1407,-0.1407,-0.1407,-0.1407,-0.1407,-0.1407,-0.1715,-0.168,-0.1671,-0.1629,-0.1613,-0.1583,-0.157,-0.1552,-0.1535,-0.1499,-0.1477,-0.1465,-0.1445,-0.1418,-0.1394,-0.1389,-0.1381,-0.1376,-0.1372,-0.1398,-0.1401,-0.1404,-0.1411,-0.1374,-0.1374,-0.1346,-0.1346,-0.1346]}]]